カタログに戻る

NOAA 16 DEB

運用中PO
NORAD 41659·DEBRIS·🇺🇸 United States

打ち上げ Sep 21, 2000 から Vandenberg Space Force Base

Loading…

次のパス (今後24時間)

TLE

最新Source: Space-Track

元期: Sep 13, 2026, 05:38 UTC

1 41659U 00055NY  26256.23532111  .00006034  00000-0  15418-2 0  9998
2 41659  98.8784  45.7413 0012140 218.4360 141.5969 14.50806108540059

AllMySatでNOAA 16 DEBをリアルタイム追跡

Download on the App Store